Location: Newark
(47.5833°N, 8.1500°E)
Time: 17:30:48
(UTC+00:00)

S-56A Canister/Altair - Visible Passes

Search period start: 08 May 2021 00:00
Search period end: 18 May 2021 00:00
Orbit: 632 x 2501 km, 38.9° (Epoch: 07 May)

Date Brightness Start Highest point End Pass type
(mag) Time Alt. Az. Time Alt. Az. Time Alt. Az.
08 May 9.7 19:46:17 10° W 19:59:24 54° S 20:07:53 13° ESE visible
08 May 9.6 21:53:27 10° W 22:03:14 32° SW 22:05:18 29° SSW visible
09 May 9.8 19:12:34 10° W 19:26:14 56° S 19:36:05 10° ESE visible
09 May 9.6 21:19:37 10° W 21:30:25 36° SSW 21:34:09 27° S visible
09 May 10.6 23:30:13 10° WSW 23:31:34 11° WSW 23:31:34 11° WSW visible
10 May 9.8 20:45:48 10° W 20:57:32 40° SSW 21:03:01 23° SSE visible
10 May 10.4 22:54:56 10° W 23:00:06 15° SW 23:00:26 15° SW visible
11 May 9.9 20:11:59 10° W 20:24:33 44° SSW 20:31:54 17° SE visible
11 May 10.3 22:20:26 10° W 22:27:29 19° SW 22:29:18 18° SW visible
12 May 10.0 19:38:13 10° W 19:51:27 48° SSW 20:00:47 12° SE visible
12 May 10.2 21:46:12 10° W 21:54:47 22° SW 21:58:11 19° SSW visible
13 May 10.2 21:12:07 10° W 21:22:00 26° SW 21:27:05 18° S visible
14 May 10.3 20:38:08 10° W 20:49:08 30° SW 20:56:01 15° S visible
15 May 10.4 20:04:13 10° W 20:16:10 34° SW 20:24:57 12° SSE visible
15 May 10.9 22:17:44 10° WSW 22:18:31 10° WSW 22:19:16 10° SW visible
16 May 10.5 19:30:23 10° W 19:43:07 38° SSW 19:53:06 10° SSE visible
16 May 10.8 21:40:41 10° W 21:45:50 13° SW 21:50:25 10° SSW visible
17 May 10.8 21:05:45 10° W 21:13:05 17° SW 21:19:23 10° SSW visible
